FW9382 Weather Reports


time (UTC)temp
C
wind
direction
speed
KPH
gust
KPH
rain 1hr
cm
rain 24hr
cm
rain mn
cm
humidity
%
barometer
mb
20260507065133 13 338 9.7 17.7 0.00 0.00 0.00 83 1008.1
20260507064133 13 315 9.7 20.9 0.00 0.00 0.00 83 1007.9
20260507063633 13 321 9.7 19.3 0.00 0.00 0.00 83 1008.0
20260507063133 13 313 8.0 19.3 0.00 0.00 0.00 83 1008.0
20260507061640 13 348 11.3 22.5 0.00 0.00 0.00 84 1007.7
20260507061132 13 341 9.7 20.9 0.00 0.00 0.00 84 1007.7
20260507060633 13 355 9.7 20.9 0.00 0.00 0.00 84 1007.7
20260507060132 13 11 9.7 17.7 0.00 0.00 0.00 84 1007.6
20260507055632 13 319 9.7 19.3 0.00 0.00 0.00 84 1007.5
20260507054633 13 0 9.7 20.9 0.00 0.00 0.00 83 1007.4
20260507053632 13 0 9.7 19.3 0.00 0.00 0.00 83 1007.4
20260507053133 13 337 9.7 24.1 0.00 0.00 0.00 83 1007.4
20260507052632 13 5 12.9 25.7 0.00 0.00 0.00 84 1007.4
20260507051632 13 348 11.3 24.1 0.00 0.00 0.00 84 1007.5
20260507051132 13 0 12.9 24.1 0.00 0.00 0.00 84 1007.5
20260507050645 13 342 14.5 24.1 0.00 0.00 0.00 84 1007.4
20260507050132 13 333 12.9 24.1 0.00 0.00 0.00 83 1007.6
20260507045632 13 331 11.3 22.5 0.00 0.00 0.00 84 1007.5
20260507045132 13 320 12.9 22.5 0.00 0.00 0.00 84 1007.5
20260507044632 13 330 12.9 24.1 0.00 0.00 0.00 84 1007.5
20260507044132 13 0 12.9 25.7 0.00 0.00 0.00 83 1007.6
20260507043632 13 349 12.9 25.7 0.00 0.00 0.00 83 1007.6
20260507043132 13 5 12.9 25.7 0.00 0.00 0.00 83 1007.6
20260507042633 13 348 14.5 25.7 0.00 0.00 0.00 83 1007.7
20260507041632 13 19 14.5 25.7 0.00 0.00 0.00 83 1007.7
20260507040632 13 346 16.1 25.7 0.00 0.00 0.00 83 1007.8
20260507040132 13 328 14.5 25.7 0.00 0.00 0.00 83 1007.9
20260507035632 13 17 12.9 25.7 0.00 0.00 0.00 83 1008.1
20260507035132 13 336 14.5 25.7 0.00 0.00 0.00 83 1008.2
20260507034632 13 342 12.9 25.7 0.00 0.00 0.00 83 1008.2
20260507034132 13 355 11.3 24.1 0.00 0.00 0.00 83 1008.2
20260507033631 13 317 11.3 20.9 0.00 0.00 0.00 83 1008.3
20260507033131 13 13 9.7 22.5 0.00 0.00 0.00 83 1008.3
20260507032631 13 329 12.9 25.7 0.00 0.00 0.00 83 1008.5
20260507032131 13 348 14.5 27.4 0.00 0.00 0.00 82 1008.4
20260507031632 13 336 12.9 27.4 0.00 0.00 0.00 82 1008.5
20260507031132 13 5 14.5 27.4 0.00 0.00 0.00 83 1008.5
20260507030632 13 348 14.5 27.4 0.00 0.00 0.00 82 1008.5
20260507030131 13 333 14.5 27.4 0.00 0.00 0.00 82 1008.5
20260507025631 13 355 16.1 29.0 0.00 0.00 0.00 82 1008.5
20260507025132 13 337 17.7 29.0 0.00 0.00 0.00 82 1008.3
20260507024632 13 342 16.1 25.7 0.00 0.00 0.00 83 1008.4
20260507024132 13 336 16.1 29.0 0.00 0.00 0.00 83 1008.4
20260507023631 13 333 16.1 29.0 0.00 0.00 0.00 83 1008.5
20260507022631 13 333 16.1 29.0 0.00 0.00 0.00 82 1008.6
20260507022132 13 9 12.9 24.1 0.00 0.00 0.00 83 1008.7
20260507021132 13 0 14.5 25.7 0.00 0.00 0.00 82 1008.7
20260507020632 13 331 12.9 25.7 0.00 0.00 0.00 82 1008.7
20260507020131 13 328 12.9 25.7 0.00 0.00 0.00 82 1008.7
20260507015632 13 323 14.5 25.7 0.00 0.00 0.00 82 1008.8
20260507015131 13 355 12.9 24.1 0.00 0.00 0.00 82 1008.8
20260507014632 13 330 12.9 24.1 0.00 0.00 0.00 82 1008.9
20260507014131 13 5 14.5 24.1 0.00 0.00 0.00 82 1008.8
20260507013632 13 338 16.1 27.4 0.00 0.00 0.00 82 1008.9
20260507012631 13 348 11.3 22.5 0.00 0.00 0.00 82 1009.0
20260507011632 13 16 14.5 27.4 0.00 0.00 0.00 82 1009.1
20260507011132 13 315 16.1 25.7 0.00 0.00 0.00 82 1009.0
20260507010632 13 316 14.5 25.7 0.00 0.00 0.00 82 1009.0
20260507010131 13 30 14.5 30.6 0.00 0.00 0.00 82 1009.0
20260507005632 13 339 14.5 30.6 0.00 0.00 0.00 82 1009.0
20260507005131 13 350 14.5 27.4 0.00 0.00 0.00 82 1009.1
20260507004632 13 343 14.5 27.4 0.00 0.00 0.00 82 1009.1
20260507003131 13 23 12.9 24.1 0.00 0.00 0.00 82 1009.1
20260507002632 13 336 11.3 24.1 0.00 0.00 0.00 82 1009.1
20260507002132 13 5 11.3 22.5 0.00 0.00 0.00 82 1009.1
20260507001132 13 5 12.9 24.1 0.00 0.00 0.00 82 1009.2
20260507000631 13 332 12.9 24.1 0.00 0.00 0.00 82 1009.3
20260507000132 13 25 12.9 22.5 0.00 0.00 0.00 82 1009.4
20260506235632 13 347 11.3 22.5 0.00 0.00 0.00 82 1009.4
20260506234632 13 340 11.3 22.5 0.00 0.00 0.00 81 1009.5
20260506233131 13 347 12.9 25.7 0.00 0.00 0.00 81 1009.5
20260506232131 13 5 11.3 25.7 0.00 0.00 0.00 81 1009.4
20260506231631 13 34 11.3 25.7 0.00 0.00 0.00 82 1009.4
20260506231132 13 15 9.7 20.9 0.00 0.00 0.00 82 1009.5
20260506230632 13 355 11.3 24.1 0.00 0.00 0.00 82 1009.5
20260506230131 13 11 12.9 24.1 0.00 0.00 0.00 82 1009.4
20260506225632 13 5 12.9 24.1 0.00 0.00 0.00 81 1009.6
20260506224632 13 23 11.3 24.1 0.00 0.00 0.00 81 1009.5
20260506224132 13 338 11.3 22.5 0.00 0.00 0.00 82 1009.6
20260506223632 13 355 11.3 22.5 0.00 0.00 0.00 82 1009.7
20260506223131 13 355 11.3 25.7 0.00 0.00 0.00 82 1009.6
20260506222631 13 334 11.3 25.7 0.00 0.00 0.00 82 1009.6
20260506222131 13 355 12.9 27.4 0.00 0.00 0.00 82 1009.6
20260506221632 13 329 12.9 27.4 0.00 0.00 0.00 81 1009.7
20260506221131 13 5 9.7 25.7 0.00 0.00 0.00 81 1009.7
20260506220631 13 355 11.3 24.1 0.00 0.00 0.00 81 1009.8
20260506220132 13 355 12.9 24.1 0.00 0.00 0.00 81 1009.9
20260506215631 13 321 12.9 22.5 0.00 0.00 0.00 81 1009.9
20260506214632 13 26 12.9 24.1 0.00 0.00 0.00 80 1009.9
20260506213632 13 350 12.9 22.5 0.00 0.00 0.00 81 1009.9
20260506213131 14 335 14.5 24.1 0.00 0.00 0.00 81 1009.9
20260506212631 13 12 16.1 30.6 0.00 0.00 0.00 81 1010.0
20260506212131 13 5 14.5 30.6 0.00 0.00 0.00 81 1010.0
20260506211632 14 14 12.9 25.7 0.00 0.00 0.00 81 1010.0
20260506211132 14 26 14.5 24.1 0.00 0.00 0.00 81 1009.9
20260506210632 14 0 14.5 27.4 0.00 0.00 0.00 80 1010.0
20260506210132 14 333 14.5 30.6 0.00 0.00 0.00 80 1009.9
20260506205632 14 17 16.1 30.6 0.00 0.00 0.00 80 1009.9
20260506205131 14 5 17.7 30.6 0.00 0.00 0.00 80 1009.8
20260506204632 14 309 16.1 30.6 0.00 0.00 0.00 80 1009.9
20260506204132 14 5 14.5 29.0 0.00 0.00 0.00 81 1009.8
20260506203631 14 26 16.1 29.0 0.00 0.00 0.00 81 1009.8
20260506202631 14 355 12.9 27.4 0.00 0.00 0.00 81 1009.7
20260506202131 14 317 16.1 32.2 0.00 0.00 0.00 81 1009.7
20260506201632 14 340 16.1 35.4 0.00 0.00 0.00 81 1009.6
20260506200131 14 342 14.5 27.4 0.00 0.00 0.00 81 1009.6
20260506195131 14 348 12.9 27.4 0.00 0.00 0.00 80 1009.6
20260506194631 14 341 12.9 24.1 0.00 0.00 0.00 81 1009.6
20260506193632 14 20 11.3 19.3 0.00 0.00 0.00 80 1009.7
20260506192631 14 34 11.3 22.5 0.00 0.00 0.00 80 1009.5
20260506192132 15 355 12.9 22.5 0.00 0.00 0.00 80 1009.5
20260506191632 15 0 14.5 27.4 0.00 0.00 0.00 79 1009.4
20260506191132 15 17 17.7 30.6 0.00 0.00 0.00 79 1009.4
20260506190632 15 12 16.1 30.6 0.00 0.00 0.00 79 1009.4
20260506190131 15 355 14.5 29.0 0.00 0.00 0.00 79 1009.3
20260506185632 15 15 12.9 29.0 0.00 0.00 0.00 79 1009.3
20260506184631 15 329 16.1 27.4 0.00 0.00 0.00 78 1009.5
20260506183631 15 19 16.1 30.6 0.00 0.00 0.00 78 1009.5
20260506183132 15 36 16.1 32.2 0.00 0.00 0.00 77 1009.4
20260506182132 16 349 12.9 27.4 0.00 0.00 0.00 77 1009.4
20260506181631 16 0 16.1 27.4 0.00 0.00 0.00 77 1009.4
20260506181131 16 19 16.1 27.4 0.00 0.00 0.00 76 1009.3
20260506180632 16 327 17.7 35.4 0.00 0.00 0.00 76 1009.4
20260506180131 16 350 17.7 35.4 0.00 0.00 0.00 76 1009.5
20260506175631 16 13 17.7 33.8 0.00 0.00 0.00 77 1009.3
20260506175131 16 0 17.7 33.8 0.00 0.00 0.00 76 1009.4
20260506174631 16 13 16.1 30.6 0.00 0.00 0.00 76 1009.4
20260506174131 16 0 16.1 30.6 0.00 0.00 0.00 75 1009.4
20260506173132 17 339 14.5 29.0 0.00 0.00 0.00 74 1009.5
20260506172631 17 355 14.5 29.0 0.00 0.00 0.00 74 1009.6
20260506172132 17 337 16.1 29.0 0.00 0.00 0.00 74 1009.6
20260506171631 17 355 17.7 30.6 0.00 0.00 0.00 73 1009.6
20260506170645 17 317 17.7 32.2 0.00 0.00 0.00 73 1009.5
20260506170131 17 319 16.1 32.2 0.00 0.00 0.00 74 1009.7
20260506165631 17 310 19.3 33.8 0.00 0.00 0.00 73 1009.7
20260506165131 17 333 19.3 33.8 0.00 0.00 0.00 72 1009.8
20260506164131 17 338 19.3 32.2 0.00 0.00 0.00 73 1010.0
20260506163631 17 307 20.9 33.8 0.00 0.00 0.00 73 1009.9
20260506163131 17 355 22.5 33.8 0.00 0.00 0.00 72 1009.9
20260506162631 17 355 20.9 32.2 0.00 0.00 0.00 73 1010.1
20260506162131 17 0 19.3 32.2 0.00 0.00 0.00 71 1010.0
20260506161132 17 355 19.3 32.2 0.00 0.00 0.00 72 1009.9
20260506160631 17 348 17.7 30.6 0.00 0.00 0.00 73 1010.0
20260506160131 17 0 19.3 32.2 0.00 0.00 0.00 73 1010.0
20260506155632 17 5 19.3 32.2 0.00 0.00 0.00 73 1010.1
20260506155132 17 347 16.1 32.2 0.00 0.00 0.00 74 1010.0
20260506154632 17 348 14.5 29.0 0.00 0.00 0.00 75 1010.1
20260506154131 17 318 17.7 32.2 0.00 0.00 0.00 75 1010.1
20260506153631 17 344 20.9 33.8 0.00 0.00 0.00 73 1010.1
20260506153131 17 333 20.9 33.8 0.00 0.00 0.00 74 1010.2
20260506152632 17 342 20.9 32.2 0.00 0.00 0.00 74 1010.2
20260506151131 17 318 19.3 30.6 0.00 0.00 0.00 72 1010.3
20260506150631 17 5 19.3 32.2 0.00 0.00 0.00 74 1010.4
20260506150131 17 332 19.3 33.8 0.00 0.00 0.00 74 1010.5
20260506145632 17 355 16.1 33.8 0.00 0.00 0.00 74 1010.6
20260506145131 17 329 17.7 33.8 0.00 0.00 0.00 74 1010.7
20260506144131 17 350 17.7 32.2 0.00 0.00 0.00 74 1010.8
20260506143632 17 342 20.9 33.8 0.00 0.00 0.00 74 1010.8
20260506143132 17 338 20.9 33.8 0.00 0.00 0.00 74 1010.8
20260506142631 17 343 19.3 32.2 0.00 0.00 0.00 73 1010.7
20260506142131 17 346 17.7 32.2 0.00 0.00 0.00 74 1010.9
20260506141632 18 317 17.7 30.6 0.00 0.00 0.00 73 1010.9
20260506141131 18 355 14.5 29.0 0.00 0.00 0.00 73 1010.8
20260506140133 18 346 16.1 29.0 0.00 0.00 0.00 73 1011.1
20260506135133 18 342 14.5 29.0 0.00 0.00 0.00 72 1011.2
20260506134633 18 331 17.7 30.6 0.00 0.00 0.00 73 1011.2
20260506134132 18 11 17.7 30.6 0.00 0.00 0.00 72 1011.3
20260506133632 18 340 14.5 30.6 0.00 0.00 0.00 72 1011.3
20260506133132 18 0 16.1 29.0 0.00 0.00 0.00 71 1011.3
20260506132632 18 346 16.1 32.2 0.00 0.00 0.00 72 1011.3
20260506132131 18 319 14.5 32.2 0.00 0.00 0.00 73 1011.4
20260506131632 18 323 14.5 25.7 0.00 0.00 0.00 72 1011.3
20260506131132 18 326 14.5 25.7 0.00 0.00 0.00 71 1011.5
20260506130131 18 315 14.5 27.4 0.00 0.00 0.00 72 1011.5
20260506125632 18 5 14.5 27.4 0.00 0.00 0.00 72 1011.6
20260506125131 18 294 14.5 27.4 0.00 0.00 0.00 73 1011.6
20260506124633 18 319 16.1 27.4 0.00 0.00 0.00 73 1011.8
20260506124131 18 5 16.1 29.0 0.00 0.00 0.00 73 1011.7
20260506123632 18 320 16.1 29.0 0.00 0.00 0.00 73 1011.7
20260506123132 18 22 16.1 27.4 0.00 0.00 0.00 74 1011.8
20260506122632 18 317 16.1 32.2 0.00 0.00 0.00 74 1011.8
20260506122132 17 325 16.1 32.2 0.00 0.00 0.00 74 1011.8
20260506121631 18 340 12.9 30.6 0.00 0.00 0.00 74 1011.9
20260506121132 17 342 14.5 27.4 0.00 0.00 0.00 74 1012.0
20260506120632 17 332 16.1 35.4 0.00 0.00 0.00 74 1012.0
20260506120132 17 355 14.5 35.4 0.00 0.00 0.00 75 1012.0
20260506115632 17 355 16.1 30.6 0.00 0.00 0.00 75 1012.0
20260506115131 17 347 17.7 30.6 0.00 0.00 0.00 74 1012.1
20260506113622 17 355 16.1 27.4 0.00 0.00 0.00 73 1012.2
20260506113116 17 0 14.5 25.7 0.00 0.00 0.00 74 1012.2
20260506112610 17 342 14.5 24.1 0.00 0.00 0.00 73 1012.2
20260506112108 18 329 12.9 24.1 0.00 0.00 0.00 73 1012.3
20260506111609 18 327 11.3 20.9 0.00 0.00 0.00 75 1012.3
20260506111108 18 355 9.7 22.5 0.00 0.00 0.00 74 1012.3
20260506110614 18 305 9.7 22.5 0.00 0.00 0.00 75 1012.4
20260506110108 18 315 11.3 20.9 0.00 0.00 0.00 75 1012.3
20260506105608 18 333 11.3 20.9 0.00 0.00 0.00 74 1012.3
20260506105106 18 315 11.3 24.1 0.00 0.00 0.00 75 1012.3
20260506104607 18 0 11.3 24.1 0.00 0.00 0.00 75 1012.3
20260506103607 18 329 9.7 16.1 0.00 0.00 0.00 75 1012.4
20260506103107 18 298 9.7 19.3 0.00 0.00 0.00 74 1012.3
20260506102605 18 306 8.0 19.3 0.00 0.00 0.00 75 1012.4
20260506102106 18 331 9.7 20.9 0.00 0.00 0.00 76 1012.4
20260506101605 17 342 11.3 22.5 0.00 0.00 0.00 75 1012.3
20260506101105 17 310 9.7 22.5 0.00 0.00 0.00 75 1012.3
20260506100604 17 313 11.3 20.9 0.00 0.00 0.00 75 1012.4
20260506100104 17 355 11.3 20.9 0.00 0.00 0.00 75 1012.3
20260506095604 17 346 11.3 19.3 0.00 0.00 0.00 76 1012.4
20260506095058 17 330 11.3 19.3 0.00 0.00 0.00 76 1012.3
20260506094553 17 342 9.7 19.3 0.00 0.00 0.00 76 1012.3
20260506094046 17 323 8.0 17.7 0.00 0.00 0.00 77 1012.3
20260506093036 17 348 9.7 17.7 0.00 0.00 0.00 77 1012.3
20260506092532 17 0 9.7 17.7 0.00 0.00 0.00 77 1012.3
20260506092032 17 305 8.0 17.7 0.00 0.00 0.00 78 1012.3
20260506091033 16 325 8.0 16.1 0.00 0.00 0.00 78 1012.4
20260506090533 16 308 8.0 17.7 0.00 0.00 0.00 78 1012.3
20260506085532 16 350 8.0 14.5 0.00 0.00 0.00 79 1012.2
20260506085032 16 344 8.0 14.5 0.00 0.00 0.00 80 1012.2
20260506084033 15 38 3.2 14.5 0.00 0.00 0.00 80 1012.3
20260506083532 15 331 4.8 9.7 0.00 0.00 0.00 81 1012.2
20260506083032 15 348 6.4 14.5 0.00 0.00 0.00 80 1012.3
20260506082534 15 347 6.4 14.5 0.00 0.00 0.00 80 1012.3
20260506082034 15 0 6.4 14.5 0.00 0.00 0.00 80 1012.3
20260506081534 15 12 8.0 14.5 0.00 0.00 0.00 81 1012.3
20260506081034 15 325 6.4 12.9 0.00 0.00 0.00 82 1012.3
20260506080533 15 5 6.4 12.9 0.00 0.00 0.00 82 1012.3
20260506073032 13 36 4.8 12.9 0.00 0.00 0.00 85 1012.2
20260506072032 13 47 3.2 9.7 0.00 0.00 0.00 86 1012.3
20260506071532 13 26 4.8 9.7 0.00 0.00 0.00 86 1012.3
20260506071031 13 22 4.8 12.9 0.00 0.00 0.00 86 1012.3
20260506070531 13 96 6.4 16.1 0.00 0.00 0.00 86 1012.3